CW5019 Weather Reports


time (UTC)temp
C
wind
direction
speed
KPH
gust
KPH
rain 1hr
cm
rain 24hr
cm
rain mn
cm
humidity
%
barometer
mb
20260505171759 25 331 0.0 1.6 0.00 0.00 0.00 85 1008.3
20260505171255 25 335 4.8 6.4 0.00 0.00 0.00 85 1008.4
20260505170752 25 83 1.6 3.2 0.00 0.00 0.00 86 1008.3
20260505170250 25 340 1.6 1.6 0.00 0.00 0.00 87 1008.4
20260505165749 25 347 1.6 1.6 0.00 0.00 0.00 88 1008.5
20260505165246 25 355 1.6 1.6 0.00 0.00 0.00 88 1008.4
20260505164741 25 5 0.0 0.0 0.00 0.00 0.00 88 1008.7
20260505164239 25 342 0.0 0.0 0.00 0.00 0.00 87 1008.6
20260505163737 25 342 0.0 1.6 0.00 0.00 0.00 87 1008.6
20260505163235 25 338 1.6 1.6 0.00 0.00 0.00 87 1008.6
20260505162732 24 334 1.6 3.2 0.00 0.00 0.00 88 1008.6
20260505162229 24 65 1.6 1.6 0.00 0.00 0.00 89 1008.7
20260505161726 24 328 1.6 3.2 0.00 0.00 0.00 89 1008.7
20260505161224 23 355 0.0 1.6 0.00 0.00 0.00 90 1008.5
20260505160721 23 328 1.6 1.6 0.00 0.00 0.00 90 1008.4
20260505160218 23 9 1.6 1.6 0.00 0.00 0.00 90 1008.6
20260505153157 24 58 1.6 1.6 0.00 0.00 0.00 87 1008.4
20260505152654 24 4 1.6 3.2 0.00 0.00 0.00 87 1008.2
20260505152150 24 50 1.6 1.6 0.00 0.00 0.00 86 1008.2
20260505151645 24 327 3.2 3.2 0.00 0.00 0.00 86 1008.3
20260505151143 24 334 0.0 1.6 0.00 0.00 0.00 87 1008.2
20260505150639 24 330 1.6 3.2 0.00 0.00 0.00 87 1008.1
20260505150136 24 21 1.6 3.2 0.00 0.00 0.00 87 1008.1
20260505140605 23 56 1.6 3.2 0.00 0.00 0.00 90 1007.8
20260505125018 22 354 0.0 0.0 0.00 0.00 0.00 92 1007.9
20260505124515 22 342 0.0 0.0 0.00 0.00 0.00 92 1007.4
20260505124011 22 350 1.6 3.2 0.00 0.00 0.00 92 1007.2
20260505123508 21 70 1.6 3.2 0.00 0.00 0.00 92 1007.3
20260505123004 21 6 0.0 0.0 0.00 0.00 0.00 92 1007.4
20260505122501 21 352 0.0 0.0 0.00 0.00 0.00 93 1007.7
20260505121958 21 341 0.0 0.0 0.00 0.00 0.00 92 1007.5
20260505121455 21 301 0.0 0.0 0.00 0.00 0.00 93 1007.6
20260505120950 21 8 1.6 1.6 0.00 0.00 0.00 93 1007.5
20260505120447 21 37 3.2 3.2 0.00 0.00 0.00 92 1007.6
20260505115946 21 15 1.6 3.2 0.00 0.00 0.00 93 1007.6
20260505115443 21 316 1.6 3.2 0.00 0.00 0.00 93 1007.4
20260505114941 21 325 1.6 1.6 0.00 0.00 0.00 93 1007.2
20260505114437 21 1 0.0 1.6 0.00 0.00 0.00 93 1007.1
20260505113934 21 347 1.6 3.2 0.00 0.00 0.00 93 1007.0
20260505113430 21 356 0.0 0.0 0.00 0.00 0.00 93 1007.5
20260505112926 21 38 0.0 1.6 0.00 0.00 0.00 93 1007.6
20260505112424 21 359 1.6 1.6 0.00 0.00 0.00 93 1007.5
20260505111920 21 1 0.0 0.0 0.00 0.00 0.00 93 1007.3
20260505111414 21 349 0.0 0.0 0.00 0.00 0.00 92 1007.4
20260505110911 21 336 0.0 0.0 0.00 0.00 0.00 92 1007.3
20260505110408 21 343 1.6 3.2 0.00 0.00 0.00 92 1007.4
20260505101839 21 13 1.6 3.2 0.00 0.00 0.00 91 1007.3
20260505101334 21 1 0.0 1.6 0.00 0.00 0.00 91 1007.3
20260505100830 21 3 0.0 0.0 0.00 0.00 0.00 91 1007.5
20260505100327 21 359 0.0 0.0 0.00 0.00 0.00 91 1007.4
20260505095822 21 2 0.0 0.0 0.00 0.00 0.00 91 1007.5
20260505095320 21 2 0.0 0.0 0.00 0.00 0.00 91 1007.6
20260505094816 21 4 1.6 1.6 0.00 0.00 0.00 91 1007.6
20260505094313 21 338 0.0 0.0 0.00 0.00 0.00 91 1007.5
20260505093808 21 356 0.0 0.0 0.00 0.00 0.00 91 1007.5
20260505093306 21 1 0.0 0.0 0.00 0.00 0.00 91 1007.4
20260505092803 21 5 0.0 0.0 0.00 0.00 0.00 91 1007.7
20260505092304 21 0 0.0 0.0 0.00 0.00 0.00 91 1007.6
20260505091758 21 3 0.0 0.0 0.00 0.00 0.00 91 1007.9
20260505091256 21 350 0.0 0.0 0.00 0.00 0.00 91 1007.9
20260505090754 21 353 1.6 1.6 0.00 0.00 0.00 91 1007.7
20260505090252 21 356 0.0 0.0 0.00 0.00 0.00 91 1007.6
20260505085749 21 343 0.0 0.0 0.00 0.00 0.00 91 1007.6
20260505085247 21 356 0.0 1.6 0.00 0.00 0.00 90 1007.7
20260505084744 21 351 0.0 0.0 0.00 0.00 0.00 90 1007.8
20260505084243 21 350 0.0 0.0 0.00 0.00 0.00 90 1007.7
20260505083739 21 356 0.0 0.0 0.00 0.00 0.00 90 1007.6
20260505083236 21 347 0.0 1.6 0.00 0.00 0.00 90 1007.9
20260505082732 21 356 0.0 0.0 0.00 0.00 0.00 90 1008.0
20260505082230 21 352 0.0 0.0 0.00 0.00 0.00 89 1008.0
20260505081725 21 345 0.0 0.0 0.00 0.00 0.00 89 1008.0
20260505081223 21 5 1.6 1.6 0.00 0.00 0.00 89 1008.1
20260505080720 21 344 0.0 0.0 0.00 0.00 0.00 89 1008.0
20260505080215 21 3 0.0 0.0 0.00 0.00 0.00 89 1008.2
20260505075711 21 2 0.0 0.0 0.00 0.00 0.00 89 1008.4
20260505075209 21 0 0.0 0.0 0.00 0.00 0.00 89 1008.3
20260505074706 21 1 0.0 0.0 0.00 0.00 0.00 89 1008.3
20260505074203 21 41 0.0 1.6 0.00 0.00 0.00 88 1008.2
20260505073700 21 356 0.0 0.0 0.00 0.00 0.00 88 1008.2
20260505073158 21 357 0.0 0.0 0.00 0.00 0.00 88 1008.3
20260505072654 21 357 0.0 0.0 0.00 0.00 0.00 88 1008.2
20260505072150 21 355 0.0 0.0 0.00 0.00 0.00 88 1008.5
20260505071646 21 331 0.0 0.0 0.00 0.00 0.00 88 1008.8
20260505071144 21 341 0.0 0.0 0.00 0.00 0.00 88 1008.5
20260505070641 21 2 0.0 0.0 0.00 0.00 0.00 87 1008.6
20260505070137 21 356 0.0 0.0 0.00 0.00 0.00 87 1008.6
20260505065633 21 359 0.0 0.0 0.00 0.00 0.00 87 1008.6
20260505065130 21 70 0.0 0.0 0.00 0.00 0.00 87 1008.5
20260505064627 21 351 0.0 0.0 0.00 0.00 0.00 87 1008.9
20260505064125 21 12 0.0 0.0 0.00 0.00 0.00 87 1008.6
20260505063622 21 4 1.6 1.6 0.00 0.00 0.00 87 1008.9
20260505063118 21 4 0.0 0.0 0.00 0.00 0.00 87 1008.8
20260505062615 21 348 0.0 0.0 0.00 0.00 0.00 87 1009.1
20260505062112 21 336 0.0 3.2 0.00 0.00 0.00 86 1009.0
20260505061609 21 354 0.0 0.0 0.00 0.00 0.00 86 1008.9
20260505061107 21 352 0.0 0.0 0.00 0.00 0.00 86 1009.1
20260505060604 21 355 0.0 0.0 0.00 0.00 0.00 86 1009.1
20260505055556 21 348 3.2 3.2 0.00 0.00 0.00 85 1009.0
20260505055053 21 339 1.6 1.6 0.00 0.00 0.00 85 1008.9
20260505054550 21 41 0.0 1.6 0.00 0.00 0.00 85 1009.1
20260505054049 21 352 0.0 0.0 0.00 0.00 0.00 85 1009.1
20260505053545 21 56 0.0 0.0 0.00 0.00 0.00 85 1009.2
20260505053042 21 44 0.0 0.0 0.00 0.00 0.00 84 1009.4
20260505052539 21 14 0.0 0.0 0.00 0.00 0.00 84 1009.4
20260505052037 21 51 0.0 0.0 0.00 0.00 0.00 84 1009.5
20260505051533 21 37 0.0 0.0 0.00 0.00 0.00 84 1009.4
20260505051031 21 40 0.0 0.0 0.00 0.00 0.00 83 1009.4
20260505050529 21 39 0.0 0.0 0.00 0.00 0.00 83 1009.5
20260505041457 22 15 1.6 1.6 0.00 0.00 0.00 80 1009.3
20260505040954 22 25 3.2 3.2 0.00 0.00 0.00 80 1009.4
20260505040451 22 27 1.6 1.6 0.00 0.00 0.00 80 1009.5
20260505035948 22 320 1.6 3.2 0.00 0.00 0.00 80 1009.7
20260505035444 22 3 1.6 1.6 0.00 0.00 0.00 80 1009.7
20260505034942 22 51 0.0 1.6 0.00 0.00 0.00 80 1009.6
20260505034438 22 355 0.0 0.0 0.00 0.00 0.00 80 1009.7
20260505033935 22 339 3.2 4.8 0.00 0.00 0.00 79 1009.6
20260505033432 22 334 0.0 0.0 0.00 0.00 0.00 79 1009.6
20260505032930 22 48 3.2 3.2 0.00 0.00 0.00 79 1009.7
20260505032427 22 0 0.0 0.0 0.00 0.00 0.00 79 1009.9
20260505031923 22 348 0.0 0.0 0.00 0.00 0.00 79 1009.8
20260505031420 22 347 0.0 1.6 0.00 0.00 0.00 78 1009.7
20260505030917 22 342 3.2 3.2 0.00 0.00 0.00 78 1009.7
20260505030413 22 11 1.6 1.6 0.00 0.00 0.00 78 1009.7
20260505025909 22 30 1.6 3.2 0.00 0.00 0.00 77 1009.7
20260505025406 22 52 0.0 1.6 0.00 0.00 0.00 77 1009.5
20260505024905 23 26 1.6 1.6 0.00 0.00 0.00 76 1009.5
20260505024402 23 351 0.0 0.0 0.00 0.00 0.00 76 1009.5
20260505023859 23 1 0.0 0.0 0.00 0.00 0.00 76 1009.5
20260505023356 23 5 0.0 0.0 0.00 0.00 0.00 75 1009.5
20260505022853 23 354 1.6 1.6 0.00 0.00 0.00 75 1009.3
20260505022350 23 127 3.2 3.2 0.00 0.00 0.00 75 1009.3
20260505021848 23 352 0.0 0.0 0.00 0.00 0.00 75 1009.5
20260505021344 23 357 1.6 3.2 0.00 0.00 0.00 75 1009.4
20260505020840 23 55 0.0 1.6 0.00 0.00 0.00 75 1009.5
20260505020335 23 21 0.0 0.0 0.00 0.00 0.00 76 1009.4
20260505015832 23 2 0.0 0.0 0.00 0.00 0.00 76 1009.2
20260505015330 23 331 0.0 0.0 0.00 0.00 0.00 76 1009.2
20260505014827 23 343 1.6 3.2 0.00 0.00 0.00 76 1009.2
20260505014324 23 348 0.0 0.0 0.00 0.00 0.00 76 1009.1
20260505013820 23 14 0.0 0.0 0.00 0.00 0.00 75 1009.2
20260505013318 23 14 0.0 0.0 0.00 0.00 0.00 75 1009.1
20260505012816 23 14 0.0 0.0 0.00 0.00 0.00 75 1009.1
20260505012313 23 12 0.0 0.0 0.00 0.00 0.00 74 1009.1
20260505011809 23 32 0.0 0.0 0.00 0.00 0.00 74 1008.8
20260505011306 23 352 0.0 0.0 0.00 0.00 0.00 73 1008.9
20260505010802 23 351 0.0 1.6 0.00 0.00 0.00 73 1009.1
20260505010258 23 349 0.0 0.0 0.00 0.00 0.00 73 1008.8
20260505005754 23 3 0.0 0.0 0.00 0.00 0.00 72 1009.0
20260505005252 24 7 1.6 3.2 0.00 0.00 0.00 72 1009.1
20260505004749 24 335 0.0 0.0 0.00 0.00 0.00 71 1009.1
20260505004245 24 354 0.0 0.0 0.00 0.00 0.00 71 1009.1
20260505003742 24 3 0.0 1.6 0.00 0.00 0.00 71 1009.0
20260505003240 24 334 1.6 1.6 0.00 0.00 0.00 70 1009.0
20260505002736 24 341 0.0 0.0 0.00 0.00 0.00 70 1008.9
20260505002234 25 336 0.0 0.0 0.00 0.00 0.00 70 1008.9
20260505001731 25 16 0.0 0.0 0.00 0.00 0.00 70 1009.0
20260505001228 25 351 0.0 0.0 0.00 0.00 0.00 69 1009.2
20260505000725 25 50 0.0 0.0 0.00 0.00 0.00 69 1009.1
20260505000223 25 332 0.0 0.0 0.00 0.00 0.00 69 1008.9
20260504235719 25 11 0.0 0.0 0.00 0.00 0.00 69 1009.1
20260504235215 25 336 1.6 3.2 0.00 0.00 0.00 68 1009.1
20260504234713 25 0 0.0 0.0 0.00 0.00 0.00 68 1009.1
20260504234210 25 80 0.0 1.6 0.00 0.00 0.00 68 1009.3
20260504233706 25 356 0.0 3.2 0.00 0.00 0.00 67 1009.2
20260504233202 25 344 0.0 0.0 0.00 0.00 0.00 66 1009.0
20260504232700 25 26 1.6 4.8 0.00 0.00 0.00 66 1009.1
20260504232156 26 343 0.0 0.0 0.00 0.00 0.00 66 1009.3
20260504231653 26 0 0.0 0.0 0.00 0.00 0.00 65 1009.1
20260504231149 26 27 0.0 0.0 0.00 0.00 0.00 65 1009.4
20260504230646 26 354 0.0 0.0 0.00 0.00 0.00 64 1009.5
20260504230145 26 324 1.6 3.2 0.00 0.00 0.00 64 1009.4
20260504225643 26 339 0.0 0.0 0.00 0.00 0.00 63 1009.7
20260504225138 26 4 0.0 0.0 0.00 0.00 0.00 63 1009.6
20260504224635 26 342 0.0 0.0 0.00 0.00 0.00 62 1009.5
20260504224132 26 339 0.0 0.0 0.00 0.00 0.00 62 1009.6
20260504223629 26 117 0.0 0.0 0.00 0.00 0.00 62 1009.7
20260504223125 26 337 0.0 0.0 0.00 0.00 0.00 62 1009.7
20260504222622 26 9 0.0 0.0 0.00 0.00 0.00 61 1009.8
20260504222119 26 4 0.0 1.6 0.00 0.00 0.00 62 1009.7
20260504221616 26 37 0.0 1.6 0.00 0.00 0.00 61 1010.0
20260504221113 26 356 0.0 1.6 0.00 0.00 0.00 62 1009.8
20260504220610 26 26 0.0 0.0 0.00 0.00 0.00 62 1010.0
20260504220108 26 1 0.0 0.0 0.00 0.00 0.00 61 1009.8
20260504215603 26 349 0.0 1.6 0.00 0.00 0.00 60 1009.8
20260504215101 27 349 0.0 0.0 0.00 0.00 0.00 60 1010.1
20260504214557 27 76 1.6 3.2 0.00 0.00 0.00 60 1009.9
20260504214053 27 3 0.0 0.0 0.00 0.00 0.00 59 1010.5
20260504213549 27 343 0.0 0.0 0.00 0.00 0.00 58 1010.2
20260504213047 27 339 0.0 0.0 0.00 0.00 0.00 60 1010.3
20260504212542 27 350 0.0 0.0 0.00 0.00 0.00 57 1010.5
20260504212040 27 176 0.0 0.0 0.00 0.00 0.00 58 1010.4
20260504211537 27 79 0.0 0.0 0.00 0.00 0.00 59 1010.5
20260504211034 27 89 0.0 0.0 0.00 0.00 0.00 60 1010.6
20260504210531 27 43 0.0 0.0 0.00 0.00 0.00 59 1010.7
20260504210027 27 339 0.0 0.0 0.00 0.00 0.00 59 1010.6
20260504205526 27 66 0.0 0.0 0.00 0.00 0.00 59 1010.7
20260504205023 27 353 0.0 0.0 0.00 0.00 0.00 58 1010.8
20260504204521 28 24 0.0 0.0 0.00 0.00 0.00 58 1010.9
20260504204020 27 351 0.0 0.0 0.00 0.00 0.00 57 1011.1
20260504203518 27 9 0.0 0.0 0.00 0.00 0.00 59 1011.0
20260504203015 27 356 0.0 0.0 0.00 0.00 0.00 57 1011.0
20260504202510 27 359 0.0 0.0 0.00 0.00 0.00 58 1011.3
20260504202007 27 356 0.0 0.0 0.00 0.00 0.00 59 1011.2
20260504201504 27 21 0.0 0.0 0.00 0.00 0.00 60 1011.4
20260504201002 26 95 0.0 0.0 0.00 0.00 0.00 60 1011.7
20260504200458 26 146 0.0 0.0 0.00 0.00 0.00 60 1011.6
20260504195955 27 43 0.0 0.0 0.00 0.00 0.00 59 1011.8
20260504195450 27 317 0.0 0.0 0.00 0.00 0.00 58 1011.8
20260504194947 26 6 0.0 0.0 0.00 0.00 0.00 60 1012.0
20260504194443 27 339 0.0 0.0 0.00 0.00 0.00 57 1012.1
20260504193939 27 45 0.0 0.0 0.00 0.00 0.00 58 1012.0
20260504193437 27 133 0.0 0.0 0.00 0.00 0.00 59 1012.5
20260504192936 26 6 0.0 0.0 0.00 0.00 0.00 59 1012.2
20260504192432 26 5 0.0 0.0 0.00 0.00 0.00 59 1012.3
20260504191931 27 51 0.0 0.0 0.00 0.00 0.00 58 1012.5
20260504191430 27 87 0.0 0.0 0.00 0.00 0.00 56 1012.2
20260504190929 27 345 0.0 0.0 0.00 0.00 0.00 56 1012.5
20260504190425 27 345 0.0 0.0 0.00 0.00 0.00 56 1012.8
20260504185922 27 124 0.0 1.6 0.00 0.00 0.00 56 1012.6
20260504185420 27 152 0.0 0.0 0.00 0.00 0.00 57 1013.0
20260504184915 27 115 0.0 0.0 0.00 0.00 0.00 56 1012.9
20260504184411 27 141 0.0 1.6 0.00 0.00 0.00 56 1012.9
20260504183908 26 343 0.0 3.2 0.00 0.00 0.00 58 1012.8
20260504183405 26 339 0.0 0.0 0.00 0.00 0.00 59 1012.8
20260504182903 26 340 0.0 0.0 0.00 0.00 0.00 59 1012.9
20260504182359 26 356 0.0 0.0 0.00 0.00 0.00 60 1013.1
20260504181856 26 162 0.0 0.0 0.00 0.00 0.00 61 1013.1
20260504181354 26 344 0.0 0.0 0.00 0.00 0.00 60 1013.2
20260504180852 26 342 1.6 1.6 0.00 0.00 0.00 59 1013.3
20260504180350 26 309 1.6 3.2 0.00 0.00 0.00 58 1013.2
20260504175848 26 169 0.0 0.0 0.00 0.00 0.00 59 1013.5
20260504175345 26 332 0.0 0.0 0.00 0.00 0.00 58 1013.5
20260504174843 26 170 0.0 3.2 0.00 0.00 0.00 60 1013.4
20260504174340 26 342 0.0 1.6 0.00 0.00 0.00 59 1013.6
20260504173837 25 7 0.0 0.0 0.00 0.00 0.00 59 1013.6
20260504173334 25 1 0.0 0.0 0.00 0.00 0.00 59 1013.7
20260504172831 25 165 1.6 1.6 0.00 0.00 0.00 61 1013.8
20260504172327 25 327 0.0 0.0 0.00 0.00 0.00 60 1013.8
20260504171823 25 321 0.0 1.6 0.00 0.00 0.00 61 1013.8